| time (UTC) | temp C | wind direction | speed KPH | gust KPH | rain 1hr cm | rain 24hr cm | rain mn cm | humidity % | barometer mb |
| 20260906101113 | 22 | 135 | 1.6 | 3.2 | 0.00 | 0.00 | 0.00 | 57 | 1025.2 |
| 20260906100113 | 22 | 315 | 1.6 | 0.0 | 0.00 | 0.00 | 0.00 | 58 | 1025.4 |
| 20260906095113 | 22 | 292 | 3.2 | 1.6 | 0.00 | 0.00 | 0.00 | 60 | 1025.4 |
| 20260906094112 | 21 | 247 | 1.6 | 4.8 | 0.00 | 0.00 | 0.00 | 60 | 1025.4 |
| 20260906093113 | 21 | 247 | 1.6 | 0.0 | 0.00 | 0.00 | 0.00 | 61 | 1025.4 |
| 20260906092114 | 21 | 135 | 1.6 | 1.6 | 0.00 | 0.00 | 0.00 | 62 | 1026.1 |
| 20260906091112 | 20 | 135 | 0.0 | 1.6 | 0.00 | 0.00 | 0.00 | 62 | 1026.1 |
| 20260906090112 | 20 | 270 | 1.6 | 0.0 | 0.00 | 0.00 | 0.00 | 63 | 1026.2 |
| 20260906085112 | 20 | 157 | 0.0 | 1.6 | 0.00 | 0.00 | 0.00 | 65 | 1026.2 |
| 20260906084112 | 19 | 90 | 1.6 | 0.0 | 0.00 | 0.00 | 0.00 | 66 | 1026.2 |
| 20260906082112 | 18 | 225 | 1.6 | 0.0 | 0.00 | 0.00 | 0.00 | 71 | 1026.6 |
| 20260906081112 | 18 | 90 | 0.0 | 1.6 | 0.00 | 0.00 | 0.00 | 72 | 1026.6 |
| 20260906080112 | 18 | 202 | 1.6 | 1.6 | 0.00 | 0.00 | 0.00 | 73 | 1026.1 |
| 20260906075112 | 18 | 180 | 1.6 | 0.0 | 0.00 | 0.00 | 0.00 | 74 | 1026.1 |
| 20260906074111 | 17 | 22 | 0.0 | 3.2 | 0.00 | 0.00 | 0.00 | 75 | 1026.6 |
| 20260906073112 | 17 | 135 | 0.0 | 0.0 | 0.00 | 0.00 | 0.00 | 75 | 1026.6 |
| 20260906071112 | 17 | 67 | 0.0 | 1.6 | 0.00 | 0.00 | 0.00 | 77 | 1026.8 |
| 20260906070111 | 16 | 225 | 0.0 | 0.0 | 0.00 | 0.00 | 0.00 | 78 | 1026.8 |
| 20260906065111 | 16 | 202 | 0.0 | 0.0 | 0.00 | 0.00 | 0.00 | 78 | 1026.8 |
| 20260906063111 | 15 | 337 | 0.0 | 0.0 | 0.00 | 0.00 | 0.00 | 78 | 1026.4 |
| 20260906062111 | 15 | 45 | 0.0 | 0.0 | 0.00 | 0.00 | 0.00 | 78 | 1025.8 |
| 20260906061111 | 15 | 180 | 0.0 | 0.0 | 0.00 | 0.00 | 0.00 | 79 | 1025.8 |
| 20260906060111 | 15 | 225 | 0.0 | 0.0 | 0.00 | 0.00 | 0.00 | 79 | 1025.9 |
| 20260906055111 | 14 | 292 | 0.0 | 0.0 | 0.00 | 0.00 | 0.00 | 79 | 1025.9 |
| 20260906053111 | 14 | 247 | 0.0 | 0.0 | 0.00 | 0.00 | 0.00 | 80 | 1025.6 |
| 20260906052111 | 14 | 90 | 0.0 | 0.0 | 0.00 | 0.00 | 0.00 | 79 | 1025.9 |
| 20260906050110 | 14 | 202 | 0.0 | 0.0 | 0.00 | 0.00 | 0.00 | 79 | 1026.0 |
| 20260906045110 | 13 | 247 | 0.0 | 0.0 | 0.00 | 0.00 | 0.00 | 79 | 1026.0 |
| 20260906043110 | 14 | 90 | 0.0 | 0.0 | 0.00 | 0.00 | 0.00 | 79 | 1025.6 |
| 20260906042110 | 14 | 67 | 0.0 | 0.0 | 0.00 | 0.00 | 0.00 | 79 | 1025.6 |
| 20260906041110 | 14 | 157 | 0.0 | 0.0 | 0.00 | 0.00 | 0.00 | 79 | 1025.6 |
| 20260906040110 | 14 | 135 | 0.0 | 0.0 | 0.00 | 0.00 | 0.00 | 79 | 1025.9 |
| 20260906034113 | 14 | 180 | 0.0 | 0.0 | 0.00 | 0.00 | 0.00 | 79 | 1026.0 |
| 20260906033112 | 14 | 90 | 0.0 | 1.6 | 0.00 | 0.00 | 0.00 | 79 | 1026.0 |
| 20260906032112 | 14 | 157 | 0.0 | 0.0 | 0.00 | 0.00 | 0.00 | 79 | 1025.2 |
| 20260906031112 | 14 | 22 | 0.0 | 0.0 | 0.00 | 0.00 | 0.00 | 78 | 1025.2 |
| 20260906030113 | 14 | 225 | 0.0 | 0.0 | 0.00 | 0.00 | 0.00 | 79 | 1025.1 |
| 20260906025113 | 14 | 67 | 0.0 | 0.0 | 0.00 | 0.00 | 0.00 | 78 | 1025.1 |
| 20260906024112 | 14 | 112 | 1.6 | 1.6 | 0.00 | 0.00 | 0.00 | 78 | 1025.2 |
| 20260906023112 | 14 | 180 | 0.0 | 0.0 | 0.00 | 0.00 | 0.00 | 78 | 1025.2 |
| 20260906022112 | 15 | 180 | 0.0 | 0.0 | 0.00 | 0.00 | 0.00 | 78 | 1025.2 |
| 20260906020111 | 15 | 90 | 0.0 | 0.0 | 0.00 | 0.00 | 0.00 | 78 | 1025.2 |
| 20260906015111 | 15 | 202 | 0.0 | 0.0 | 0.00 | 0.00 | 0.00 | 78 | 1025.2 |
| 20260906013111 | 15 | 202 | 0.0 | 0.0 | 0.00 | 0.00 | 0.00 | 78 | 1025.1 |
| 20260906012111 | 15 | 22 | 0.0 | 0.0 | 0.00 | 0.00 | 0.00 | 78 | 1025.1 |
| 20260906011111 | 15 | 202 | 0.0 | 0.0 | 0.00 | 0.00 | 0.00 | 77 | 1025.1 |
| 20260906010111 | 15 | 157 | 0.0 | 0.0 | 0.00 | 0.00 | 0.00 | 77 | 1025.1 |
| 20260906005111 | 15 | 202 | 0.0 | 0.0 | 0.00 | 0.00 | 0.00 | 77 | 1025.1 |
| 20260906004111 | 15 | 90 | 0.0 | 1.6 | 0.00 | 0.00 | 0.00 | 77 | 1025.0 |
| 20260906003110 | 15 | 225 | 0.0 | 0.0 | 0.00 | 0.00 | 0.00 | 78 | 1025.0 |
| 20260906002110 | 15 | 157 | 1.6 | 0.0 | 0.00 | 0.00 | 0.00 | 76 | 1025.2 |
| 20260906000112 | 15 | 202 | 0.0 | 0.0 | 0.00 | 0.00 | 0.00 | 77 | 1025.2 |
| 20260905235110 | 15 | 360 | 0.0 | 0.0 | 0.00 | 0.00 | 0.00 | 77 | 1025.2 |
| 20260905234110 | 15 | 90 | 0.0 | 0.0 | 0.00 | 0.00 | 0.00 | 76 | 1025.2 |
| 20260905233110 | 15 | 202 | 0.0 | 0.0 | 0.00 | 0.00 | 0.00 | 76 | 1025.2 |
| 20260905232110 | 15 | 202 | 0.0 | 0.0 | 0.00 | 0.00 | 0.00 | 76 | 1025.1 |
| 20260905231110 | 15 | 202 | 0.0 | 0.0 | 0.00 | 0.00 | 0.00 | 76 | 1025.1 |
| 20260905230110 | 15 | 67 | 0.0 | 0.0 | 0.00 | 0.00 | 0.00 | 76 | 1025.1 |
| 20260905225110 | 15 | 157 | 0.0 | 0.0 | 0.00 | 0.00 | 0.00 | 76 | 1025.1 |
| 20260905224110 | 15 | 157 | 0.0 | 0.0 | 0.00 | 0.00 | 0.00 | 75 | 1025.1 |
| 20260905223110 | 15 | 22 | 0.0 | 0.0 | 0.00 | 0.00 | 0.00 | 75 | 1025.1 |
| 20260905222110 | 15 | 135 | 0.0 | 0.0 | 0.00 | 0.00 | 0.00 | 75 | 1024.9 |
| 20260905221110 | 15 | 225 | 0.0 | 0.0 | 0.00 | 0.00 | 0.00 | 76 | 1024.9 |
| 20260905215115 | 16 | 67 | 0.0 | 0.0 | 0.00 | 0.00 | 0.00 | 75 | 1024.8 |
| 20260905214114 | 16 | 157 | 0.0 | 0.0 | 0.00 | 0.00 | 0.00 | 75 | 1024.8 |
| 20260905213114 | 16 | 157 | 0.0 | 0.0 | 0.00 | 0.00 | 0.00 | 74 | 1024.8 |
| 20260905212114 | 16 | 90 | 0.0 | 1.6 | 0.00 | 0.00 | 0.00 | 75 | 1024.7 |
| 20260905211114 | 16 | 157 | 0.0 | 0.0 | 0.00 | 0.00 | 0.00 | 75 | 1024.7 |
| 20260905210114 | 16 | 202 | 0.0 | 0.0 | 0.00 | 0.00 | 0.00 | 74 | 1024.6 |
| 20260905204114 | 17 | 225 | 0.0 | 0.0 | 0.00 | 0.00 | 0.00 | 74 | 1024.7 |
| 20260905203114 | 17 | 112 | 0.0 | 0.0 | 0.00 | 0.00 | 0.00 | 73 | 1024.7 |
| 20260905202114 | 17 | 225 | 0.0 | 0.0 | 0.00 | 0.00 | 0.00 | 73 | 1024.6 |
| 20260905201114 | 17 | 67 | 0.0 | 1.6 | 0.00 | 0.00 | 0.00 | 72 | 1024.6 |
| 20260905200114 | 17 | 45 | 0.0 | 0.0 | 0.00 | 0.00 | 0.00 | 72 | 1024.6 |
| 20260905194113 | 17 | 112 | 0.0 | 0.0 | 0.00 | 0.00 | 0.00 | 72 | 1024.4 |
| 20260905193114 | 17 | 90 | 0.0 | 0.0 | 0.00 | 0.00 | 0.00 | 72 | 1024.4 |
| 20260905192113 | 17 | 45 | 0.0 | 0.0 | 0.00 | 0.00 | 0.00 | 70 | 1024.4 |
| 20260905191113 | 17 | 202 | 0.0 | 0.0 | 0.00 | 0.00 | 0.00 | 70 | 1024.4 |
| 20260905190113 | 17 | 202 | 0.0 | 0.0 | 0.00 | 0.00 | 0.00 | 70 | 1023.9 |
| 20260905185113 | 17 | 135 | 0.0 | 0.0 | 0.00 | 0.00 | 0.00 | 69 | 1023.9 |
| 20260905184113 | 18 | 202 | 1.6 | 0.0 | 0.00 | 0.00 | 0.00 | 69 | 1023.8 |
| 20260905183114 | 18 | 157 | 0.0 | 3.2 | 0.00 | 0.00 | 0.00 | 68 | 1023.8 |
| 20260905181113 | 18 | 247 | 0.0 | 0.0 | 0.00 | 0.00 | 0.00 | 68 | 1023.6 |
| 20260905175112 | 18 | 202 | 0.0 | 0.0 | 0.00 | 0.00 | 0.00 | 65 | 1023.5 |
| 20260905174112 | 18 | 135 | 0.0 | 0.0 | 0.00 | 0.00 | 0.00 | 64 | 1023.4 |
| 20260905173113 | 18 | 202 | 0.0 | 0.0 | 0.00 | 0.00 | 0.00 | 63 | 1023.4 |
| 20260905172113 | 19 | 202 | 0.0 | 0.0 | 0.00 | 0.00 | 0.00 | 62 | 1023.6 |
| 20260905171112 | 19 | 202 | 0.0 | 0.0 | 0.00 | 0.00 | 0.00 | 62 | 1023.6 |
| 20260905170112 | 19 | 45 | 0.0 | 0.0 | 0.00 | 0.00 | 0.00 | 61 | 1023.4 |
| 20260905165112 | 20 | 247 | 1.6 | 0.0 | 0.00 | 0.00 | 0.00 | 62 | 1023.4 |
| 20260905163112 | 20 | 315 | 1.6 | 3.2 | 0.00 | 0.00 | 0.00 | 60 | 1023.2 |
| 20260905162112 | 20 | 247 | 3.2 | 3.2 | 0.00 | 0.00 | 0.00 | 59 | 1023.1 |
| 20260905161113 | 20 | 292 | 4.8 | 6.4 | 0.00 | 0.00 | 0.00 | 59 | 1023.1 |
| 20260905160112 | 20 | 270 | 4.8 | 8.0 | 0.00 | 0.00 | 0.00 | 57 | 1023.2 |
| 20260905155113 | 20 | 315 | 4.8 | 8.0 | 0.00 | 0.00 | 0.00 | 60 | 1023.2 |
| 20260905154112 | 19 | 337 | 4.8 | 4.8 | 0.00 | 0.00 | 0.00 | 61 | 1023.4 |
| 20260905153112 | 19 | 270 | 4.8 | 9.7 | 0.00 | 0.00 | 0.00 | 63 | 1023.4 |
| 20260905152111 | 18 | 247 | 6.4 | 3.2 | 0.00 | 0.00 | 0.00 | 64 | 1023.0 |
| 20260905151111 | 18 | 292 | 6.4 | 8.0 | 0.00 | 0.00 | 0.00 | 64 | 1023.0 |
| 20260905150111 | 19 | 45 | 8.0 | 4.8 | 0.00 | 0.00 | 0.00 | 62 | 1022.8 |
| 20260905145111 | 19 | 270 | 8.0 | 9.7 | 0.00 | 0.00 | 0.00 | 62 | 1022.8 |
| 20260905144111 | 20 | 337 | 11.3 | 12.9 | 0.00 | 0.00 | 0.00 | 61 | 1022.4 |
| 20260905143111 | 20 | 315 | 9.7 | 14.5 | 0.00 | 0.00 | 0.00 | 63 | 1022.4 |
| 20260905140111 | 21 | 337 | 9.7 | 17.7 | 0.00 | 0.00 | 0.00 | 55 | 1021.6 |
| 20260905135110 | 22 | 247 | 9.7 | 8.0 | 0.00 | 0.00 | 0.00 | 55 | 1021.6 |
| 20260905134110 | 22 | 337 | 8.0 | 12.9 | 0.00 | 0.00 | 0.00 | 54 | 1021.4 |
| 20260905133110 | 22 | 292 | 11.3 | 20.9 | 0.00 | 0.00 | 0.00 | 53 | 1021.4 |
| 20260905132110 | 23 | 360 | 8.0 | 17.7 | 0.00 | 0.00 | 0.00 | 51 | 1021.3 |
| 20260905131115 | 23 | 360 | 8.0 | 12.9 | 0.00 | 0.00 | 0.00 | 50 | 1021.3 |
| 20260905130115 | 23 | 292 | 8.0 | 12.9 | 0.00 | 0.00 | 0.00 | 49 | 1021.3 |
| 20260905125115 | 24 | 360 | 4.8 | 3.2 | 0.00 | 0.00 | 0.00 | 50 | 1021.3 |
| 20260905124117 | 23 | 360 | 4.8 | 6.4 | 0.00 | 0.00 | 0.00 | 51 | 1021.4 |
| 20260905123115 | 23 | 67 | 4.8 | 6.4 | 0.00 | 0.00 | 0.00 | 51 | 1021.4 |
| 20260905122115 | 23 | 270 | 6.4 | 6.4 | 0.00 | 0.00 | 0.00 | 50 | 1021.3 |
| 20260905121115 | 23 | 337 | 3.2 | 12.9 | 0.00 | 0.00 | 0.00 | 51 | 1021.3 |
| 20260905115114 | 23 | 360 | 3.2 | 8.0 | 0.00 | 0.00 | 0.00 | 54 | 1021.6 |
| 20260905114115 | 23 | 292 | 4.8 | 6.4 | 0.00 | 0.00 | 0.00 | 56 | 1021.7 |
| 20260905113115 | 23 | 247 | 3.2 | 4.8 | 0.00 | 0.00 | 0.00 | 58 | 1021.7 |
| 20260905105114 | 20 | 157 | 1.6 | 0.0 | 0.00 | 0.00 | 0.00 | 67 | 1021.9 |
| 20260905104114 | 20 | 337 | 0.0 | 3.2 | 0.00 | 0.00 | 0.00 | 69 | 1022.0 |
| 20260905102114 | 19 | 247 | 0.0 | 1.6 | 0.00 | 0.00 | 0.00 | 71 | 1022.2 |